GFSNIL_925_spd_000.txt.gz
Wind_Speed
15 17 21 22 24 25 23 19 13 10 9 9 8 8 8 6 10 10 8 7 5 4
16 19 19 21 21 20 18 14 11 10 9 6 4 5 5 5 7 10 10 11 9 6
16 16 15 17 18 17 13 11 10 7 6 6 7 9 11 12 9 9 10 8 11 12
15 12 13 15 14 13 12 11 9 9 9 10 12 16 11 12 13 12 11 11 13 14
12 13 14 14 13 13 13 11 10 11 12 16 12 14 14 15 15 14 15 15 16 17
12 14 14 14 13 13 12 11 12 14 14 14 17 18 16 14 16 18 19 18 17 16
13 11 11 10 10 11 13 15 17 18 19 18 17 17 18 17 19 19 18 15 14 15
7 8 11 13 14 15 15 16 16 17 16 17 18 16 15 17 17 17 18 18 18 18
9 11 12 13 15 17 17 15 16 16 17 18 16 13 12 14 18 21 22 22 22 22
10 12 13 15 17 17 17 17 18 17 16 15 16 16 19 19 21 23 24 24 23 23
11 11 14 16 16 17 18 18 17 16 17 19 19 17 17 20 22 22 23 23 23 24
11 12 14 15 16 18 18 18 17 17 19 20 21 18 19 20 21 22 23 23 22 21
11 11 14 15 18 18 19 19 17 18 19 20 20 18 20 19 21 21 21 20 20 20
11 12 13 16 19 20 20 19 14 16 18 18 17 21 18 19 19 20 21 21 21 19

GFSNIL_925_spd_003.txt.gz
Wind_Speed
15 16 17 18 20 21 21 22 21 21 20 21 19 17 12 9 10 8 10 9 11 13
14 16 16 16 17 20 22 24 23 22 22 19 15 13 13 12 13 14 15 13 12 12
16 16 16 18 21 22 22 24 24 21 18 16 13 13 16 20 21 18 17 15 14 14
15 16 17 19 19 20 20 21 19 16 14 13 14 18 18 17 18 17 18 18 19 19
15 17 18 17 17 17 18 17 17 17 18 19 16 15 16 19 19 20 20 20 22 23
15 17 15 15 15 15 15 17 18 19 19 20 20 20 20 20 20 20 22 23 24 24
15 13 13 13 15 17 18 20 21 20 21 20 21 22 22 17 20 24 26 23 23 22
12 13 15 15 17 18 19 19 19 19 20 20 21 15 13 15 20 24 26 27 27 26
15 14 15 15 17 19 19 19 20 21 22 20 21 16 15 16 20 26 27 28 28 28
14 15 15 16 18 18 19 20 21 22 21 20 21 16 20 21 22 25 27 27 28 27
15 16 16 17 19 19 21 21 22 21 19 21 23 20 19 18 24 26 27 27 26 26
18 17 17 18 19 20 22 22 21 18 19 23 25 25 17 21 24 24 25 25 24 23
16 16 18 18 20 21 23 21 19 17 19 22 24 19 19 17 21 23 24 23 23 23
17 17 17 18 21 22 22 20 12 15 19 22 18 19 17 15 20 23 24 24 23 22

GFSNIL_925_spd_006.txt.gz
Wind_Speed
13 16 16 16 16 15 15 18 20 19 20 15 14 14 13 11 10 10 11 14 15 17
13 15 15 12 11 14 13 15 20 22 20 19 16 14 14 15 17 17 22 23 19 19
19 12 11 13 13 12 17 21 20 19 20 20 18 16 20 20 18 18 19 19 18 21
13 12 13 13 13 15 16 18 20 20 20 20 20 19 17 19 17 17 20 21 19 18
15 15 17 16 15 16 16 16 18 20 20 21 20 20 20 21 20 21 19 21 23 23
14 15 15 17 15 13 16 18 19 20 21 21 21 21 21 20 16 19 21 23 27 27
12 10 12 14 14 16 18 19 20 19 19 21 22 22 14 14 18 20 21 23 29 31
15 11 12 9 12 16 18 17 17 20 21 22 21 11 16 16 17 19 22 24 26 28
22 14 9 11 13 16 17 17 19 19 20 19 16 16 17 21 23 21 22 26 27 29
10 11 9 12 13 18 17 19 19 20 18 14 15 13 20 20 22 19 23 26 27 28
11 10 15 7 10 18 18 19 20 16 14 15 15 22 26 21 19 21 22 25 27 28
6 14 10 9 12 18 19 20 13 14 15 17 22 23 21 17 17 19 22 25 25 26
15 13 12 12 15 16 16 15 14 13 15 19 24 19 17 15 15 19 22 23 24 24
15 16 16 13 15 14 16 14 11 15 22 21 19 16 16 13 17 19 23 24 24 24

GFSNIL_925_spd_009.txt.gz
Wind_Speed
12 14 14 15 13 9 8 11 17 17 18 17 17 16 17 20 22 21 23 25 21 22
15 12 15 10 4 8 12 16 19 19 23 24 19 20 23 24 24 20 18 20 20 17
14 10 6 6 9 12 14 18 20 18 20 21 21 20 21 22 20 20 20 21 22 21
13 6 6 8 7 9 13 15 13 16 18 18 17 18 20 21 22 21 18 15 17 19
11 12 14 10 9 8 6 8 8 12 16 17 19 20 20 15 8 14 18 18 23 24
13 15 19 11 10 2 4 8 12 10 11 15 18 19 14 11 15 18 19 21 23 27
21 23 13 4 4 8 10 12 11 10 14 16 17 15 12 13 15 18 21 23 24 26
22 7 10 4 4 14 13 8 10 15 15 15 10 11 13 15 19 23 25 23 23 25
10 12 9 12 18 16 5 11 16 14 14 7 9 10 14 21 24 24 20 23 27 27
16 17 14 10 18 9 9 11 15 9 7 8 10 10 21 21 20 20 19 22 27 27
15 14 12 10 8 9 10 12 4 7 9 11 18 20 16 17 16 17 20 22 25 24
12 12 13 16 18 14 11 2 7 8 13 18 19 16 13 18 17 17 20 21 22 23
16 15 16 12 16 8 7 5 8 12 16 17 15 15 18 15 16 20 20 21 22 22
18 20 19 12 8 11 5 7 11 13 15 16 16 21 14 16 20 20 20 21 21 23

GFSNIL_925_spd_012.txt.gz
Wind_Speed
12 4 4 6 7 5 5 2 8 9 11 13 14 14 14 13 14 16 16 17 17 18
8 3 9 12 12 8 5 4 5 11 12 13 13 12 13 15 14 15 16 18 18 16
12 12 17 16 14 11 8 6 7 8 7 8 10 10 11 14 15 14 13 9 8 11
16 16 18 16 13 12 9 6 5 5 5 8 8 9 10 12 10 3 6 9 14 18
16 17 17 13 12 11 10 5 7 13 8 8 10 13 12 12 9 7 8 12 17 21
24 28 24 13 6 3 4 8 24 19 9 12 12 13 13 7 6 9 13 17 19 20
22 19 13 10 12 15 14 14 21 13 12 14 12 12 9 9 11 14 19 21 17 19
18 19 15 18 20 14 17 17 13 10 16 13 11 9 10 12 18 21 20 19 18 19
16 13 16 15 14 19 18 5 13 15 9 3 8 8 15 19 18 18 18 17 21 21
14 15 16 14 13 17 12 14 13 1 2 5 9 11 15 15 15 16 17 19 21 21
12 14 15 13 14 12 6 15 4 2 6 9 11 11 11 14 15 15 17 20 22 22
12 15 16 18 14 14 9 5 3 4 7 9 7 12 12 15 17 20 23 21 21 21
14 15 17 16 9 2 3 6 4 6 9 8 12 15 13 15 19 22 19 20 20 19
9 13 14 5 8 4 8 5 4 8 8 10 14 16 16 18 18 18 19 19 19 22

GFSNIL_925_spd_015.txt.gz
Wind_Speed
12 9 11 13 16 18 21 18 13 8 7 6 7 7 8 9 10 10 12 13 14 13
13 14 16 17 19 19 17 12 8 9 10 10 7 9 8 10 12 13 14 15 15 11
16 17 19 21 25 22 15 10 6 8 11 14 13 9 9 11 11 14 15 11 10 12
15 18 22 22 22 13 11 8 10 8 12 19 13 9 11 13 15 14 11 12 14 17
13 16 20 19 14 14 17 23 18 15 16 18 15 11 14 14 13 13 11 14 17 21
19 18 16 17 18 19 22 22 18 19 22 15 14 14 15 13 12 11 14 18 21 21
14 14 15 17 18 21 19 18 17 21 17 12 19 15 12 10 12 15 20 21 21 19
10 10 14 19 19 18 19 16 19 9 10 19 13 8 8 12 18 20 21 22 21 21
11 13 14 16 15 14 18 15 9 15 15 4 4 8 12 16 17 18 21 23 22 23
12 13 15 17 15 16 14 11 9 6 2 4 7 10 12 13 15 17 18 20 23 23
15 16 18 17 16 12 8 12 4 3 2 6 9 10 11 13 15 17 21 21 19 21
15 18 18 19 18 12 8 4 5 1 4 8 9 11 10 13 17 20 20 17 21 18
17 14 15 18 8 2 3 4 3 2 5 6 8 11 11 13 16 18 17 22 20 17
12 13 14 11 10 8 7 6 1 3 3 4 8 11 11 14 15 18 18 18 19 20

GFSNIL_925_spd_018.txt.gz
Wind_Speed
10 10 11 14 17 18 23 24 19 10 5 7 10 10 13 13 12 13 13 15 16 18
9 10 13 17 20 22 23 21 10 8 13 12 13 15 17 14 14 15 16 17 18 17
12 13 14 17 19 21 22 15 12 20 18 13 13 19 18 15 14 15 17 15 14 14
12 11 11 13 15 17 18 20 21 22 16 12 14 20 15 15 16 17 16 14 14 16
11 11 10 11 16 18 21 20 22 18 16 16 23 17 14 16 18 15 14 14 17 21
9 9 10 13 18 20 20 21 17 14 17 19 14 9 13 17 13 12 14 18 22 23
10 10 12 15 18 20 20 18 17 15 19 10 9 14 14 9 10 15 20 21 22 24
13 12 14 15 18 20 18 18 17 15 10 11 12 7 6 10 16 19 20 23 25 24
13 14 15 17 20 19 18 16 14 13 12 3 2 5 8 14 17 19 21 23 24 25
13 15 18 18 19 19 16 12 9 8 1 2 5 8 11 15 17 18 21 23 21 19
14 16 19 19 19 20 17 12 10 2 1 4 7 11 12 12 15 19 21 19 18 20
14 18 19 17 19 20 10 4 4 3 4 5 8 11 11 12 15 17 19 16 19 17
19 18 16 17 18 10 7 6 7 4 4 6 8 9 10 11 14 17 18 20 18 16
21 15 14 16 15 14 10 8 6 3 5 6 7 9 9 11 14 17 18 18 19 18

GFSNIL_925_spd_021.txt.gz
Wind_Speed
5 6 7 10 12 15 17 20 23 19 14 12 14 12 10 11 11 9 10 11 10 12
4 3 5 9 12 14 16 19 20 15 15 15 13 9 11 14 14 11 11 12 12 12
3 5 8 9 10 14 18 23 21 18 16 15 12 12 14 16 14 12 13 12 12 12
6 8 8 9 10 13 18 19 19 17 17 15 14 14 16 15 12 13 14 11 11 13
7 10 9 9 10 14 19 20 19 17 13 11 14 16 15 9 9 13 10 10 12 16
10 10 11 10 13 17 21 20 17 15 12 16 15 11 8 9 13 6 8 12 16 18
13 13 12 12 15 18 20 18 15 13 14 12 8 10 7 6 5 9 12 14 16 18
15 14 12 13 16 19 19 16 15 11 10 11 4 3 3 6 9 11 14 16 17 17
14 12 12 15 18 18 17 15 12 8 8 1 2 3 8 10 11 13 14 17 19 17
11 12 14 17 17 15 14 14 10 9 3 1 2 8 10 13 10 12 15 16 16 16
12 14 16 17 14 14 16 11 7 4 4 3 5 9 11 13 10 12 14 15 15 16
13 16 16 14 12 14 13 7 5 5 6 4 5 9 11 11 10 13 15 14 15 16
16 17 16 12 11 13 10 8 7 6 5 5 7 8 9 9 11 14 16 15 15 13
15 16 11 10 12 12 9 7 8 7 5 6 8 8 9 9 11 12 15 15 16 14

GFSNIL_925_spd_024.txt.gz
Wind_Speed
4 3 4 6 9 11 12 13 16 18 18 16 14 13 15 15 13 13 13 13 14 15
4 2 4 6 8 8 10 13 16 18 17 16 15 17 17 18 17 17 14 14 15 15
2 1 4 6 8 8 11 15 18 19 18 17 17 20 19 20 19 16 15 16 17 18
2 3 5 7 8 9 12 16 18 18 18 17 17 17 18 20 19 14 14 16 18 18
3 6 8 10 10 10 13 17 18 17 16 15 15 16 21 15 10 10 14 16 15 19
8 10 11 11 11 12 15 17 17 16 16 16 16 15 8 9 9 11 11 12 16 20
10 11 12 12 12 13 15 17 16 15 15 13 12 12 8 7 9 9 12 14 17 17
10 11 12 11 12 14 16 15 15 14 13 11 8 5 4 7 10 13 15 15 15 16
9 10 11 11 13 16 16 15 14 14 11 9 5 4 6 9 12 14 15 15 16 16
9 10 11 12 15 16 15 14 14 12 9 8 5 6 8 12 12 13 13 14 15 16
9 10 12 14 16 15 14 14 14 11 8 8 6 7 9 13 10 11 12 13 14 15
9 12 14 16 15 14 13 13 11 11 9 8 6 8 9 10 10 11 13 13 13 14
12 14 15 16 13 12 12 11 11 11 10 9 6 9 8 8 9 11 13 13 13 12
12 13 14 13 11 12 12 11 10 9 10 9 8 8 9 8 7 10 12 14 14 13

GFSNIL_925_spd_027.txt.gz
Wind_Speed
6 4 4 2 5 7 7 8 10 12 16 17 17 17 13 16 19 18 18 17 17 15
7 4 2 5 6 6 6 8 11 14 16 17 18 19 17 19 21 20 21 17 15 15
7 6 5 6 7 6 7 9 12 15 16 17 18 18 19 19 22 23 19 16 15 13
9 8 7 7 7 9 9 11 13 15 16 16 16 16 16 18 19 22 21 14 12 16
11 9 9 9 10 11 12 13 14 16 15 16 17 14 15 19 17 12 14 13 14 15
12 10 10 11 12 13 14 15 15 16 16 16 15 16 10 12 12 12 13 12 13 17
11 10 11 13 14 14 14 15 17 16 16 15 14 13 11 9 9 10 12 14 16 18
10 10 12 13 13 14 13 16 16 16 16 11 12 9 6 7 8 12 16 17 16 15
9 11 12 12 12 14 15 16 16 16 16 10 10 8 8 8 10 14 16 15 14 14
9 11 11 12 13 15 16 15 16 16 12 11 7 9 8 9 10 14 13 13 14 15
9 10 11 12 15 16 17 16 16 15 10 10 8 11 9 10 11 12 11 12 13 14
8 9 11 14 16 16 16 15 14 14 9 10 9 12 10 10 10 11 12 12 13 11
8 12 14 15 16 16 15 15 13 12 10 11 8 9 12 9 8 10 12 11 11 11
11 12 13 14 14 15 15 14 12 10 9 12 9 9 11 10 7 10 11 11 12 10

GFSNIL_925_spd_030.txt.gz
Wind_Speed
13 10 8 7 3 2 4 4 6 7 9 13 15 17 18 19 16 17 17 20 18 20
12 12 10 6 3 5 5 5 4 8 10 13 15 16 18 21 19 19 19 19 19 16
13 12 7 5 8 7 7 7 7 9 11 13 15 15 16 11 16 20 19 19 19 15
16 11 10 11 8 9 9 8 9 10 11 15 15 16 12 16 17 17 18 12 10 10
15 15 16 10 9 9 10 11 10 10 11 15 15 12 15 8 11 11 12 11 9 10
18 16 11 11 7 9 11 11 10 10 13 16 14 10 10 10 10 11 10 10 10 13
15 19 9 4 7 10 10 10 9 12 15 16 12 9 10 7 9 10 10 12 14 14
18 4 8 6 8 10 10 11 12 15 15 12 8 7 6 6 7 10 14 16 14 12
7 11 3 6 8 10 13 14 13 13 14 15 7 11 8 7 6 10 14 15 12 12
6 5 5 6 9 11 14 14 14 15 13 12 10 9 9 7 7 10 12 12 10 12
1 4 7 6 10 13 14 14 14 12 11 8 10 11 10 9 7 7 11 11 11 12
6 6 8 10 12 13 14 16 14 13 14 9 10 11 11 9 6 7 10 11 11 12
9 8 11 12 12 15 16 15 14 8 6 5 8 11 12 9 6 7 10 10 9 13
11 12 11 13 12 14 15 16 17 12 11 9 8 10 12 10 11 10 10 10 9 10

GFSNIL_925_spd_033.txt.gz
Wind_Speed
23 22 16 15 14 11 7 4 0 5 4 7 10 12 14 14 15 13 10 13 15 13
16 14 13 15 12 8 7 7 6 5 4 7 9 13 13 14 9 10 15 15 14 15
15 14 14 10 7 7 5 7 8 7 6 6 9 12 14 6 10 13 12 16 12 7
16 14 10 8 6 8 6 12 11 8 8 8 8 12 7 7 10 10 13 11 9 8
15 13 11 9 12 10 15 13 12 11 10 6 8 11 10 6 6 9 8 6 7 8
15 13 13 10 12 14 8 9 10 9 6 7 11 12 7 4 3 4 6 6 8 12
13 14 8 14 8 5 8 6 5 8 10 14 15 12 11 8 6 5 5 6 10 11
11 4 12 3 5 10 8 8 12 14 17 16 12 13 13 11 11 9 10 10 11 7
16 8 4 7 5 9 14 13 14 15 16 15 13 13 13 12 11 8 8 10 8 10
3 3 7 2 7 10 12 15 17 18 17 16 14 13 13 12 10 8 7 7 9 9
13 9 5 8 6 13 13 14 17 19 18 14 13 12 13 12 11 8 7 8 7 9
10 11 6 5 10 13 16 17 19 19 18 15 12 12 12 13 11 10 9 10 12 11
11 7 8 10 12 11 18 20 19 13 14 11 11 13 14 15 14 12 11 10 10 10
2 8 11 11 14 14 18 19 18 18 10 12 15 14 15 16 17 15 11 12 14 12

GFSNIL_925_spd_036.txt.gz
Wind_Speed
33 31 31 29 24 24 20 16 8 2 3 2 5 7 9 9 10 6 5 8 11 13
28 27 23 18 17 15 13 9 8 5 3 9 8 7 8 10 9 7 9 11 13 12
25 20 17 17 14 11 9 5 5 7 15 12 6 7 9 11 8 10 11 12 10 8
25 21 20 17 10 8 8 4 10 15 16 10 8 7 10 9 10 10 8 9 8 7
26 21 19 11 9 10 6 12 17 16 13 11 8 9 12 12 11 10 10 9 7 8
25 23 18 16 16 12 12 16 12 11 11 10 11 12 13 12 12 11 10 8 8 9
32 26 22 18 12 9 8 4 6 10 11 13 12 12 12 14 15 13 11 10 10 11
22 19 18 11 7 7 3 2 6 8 11 15 17 17 16 18 17 14 11 11 11 11
16 8 11 10 2 3 4 5 6 10 14 16 19 16 18 19 18 15 12 11 10 10
20 17 10 10 4 6 2 7 11 16 17 19 21 20 19 18 17 15 13 12 10 11
17 17 12 10 9 1 7 13 18 16 18 21 21 17 17 18 16 15 14 13 11 12
20 19 12 4 8 11 15 11 10 18 18 18 17 16 17 18 19 18 16 13 14 15
15 6 6 9 11 12 9 15 15 15 14 18 16 14 16 19 19 20 18 15 15 15
6 7 8 8 9 10 12 17 20 18 16 17 14 16 18 20 23 24 21 18 17 15

GFSNIL_925_spd_039.txt.gz
Wind_Speed
27 29 28 31 32 27 24 21 17 12 6 9 1 7 8 9 9 7 5 5 5 7
28 27 30 27 27 24 21 19 17 10 6 3 9 8 11 11 10 10 8 7 8 9
31 30 24 24 25 22 22 19 16 16 11 12 13 15 15 12 11 12 9 9 9 9
29 30 30 28 27 27 27 27 24 17 15 15 17 17 14 11 12 13 12 11 10 10
33 31 29 30 33 30 26 24 16 15 15 15 16 14 13 11 14 16 15 12 11 11
34 34 31 28 25 23 18 13 12 11 11 15 14 12 12 14 18 19 18 14 13 12
30 26 24 21 20 20 9 7 5 5 6 11 10 12 15 19 20 20 18 15 14 13
26 24 22 19 15 10 12 7 3 2 5 11 13 20 24 21 19 20 16 14 16 14
21 21 19 18 15 12 10 5 1 8 15 18 18 15 15 17 21 20 19 18 16 14
22 22 20 16 14 10 4 6 14 14 16 13 14 17 17 18 22 22 19 18 17 15
26 24 22 19 12 3 10 14 13 13 12 16 17 14 14 16 19 20 19 19 17 15
24 22 17 8 6 12 11 13 13 14 13 12 13 15 14 15 19 20 21 18 19 18
13 8 6 6 7 8 11 13 12 14 16 17 18 16 13 13 17 24 23 22 22 20
2 6 7 7 8 9 11 13 17 19 16 16 18 17 16 17 21 24 26 27 24 23

GFSNIL_925_spd_042.txt.gz
Wind_Speed
35 31 31 30 32 34 34 31 28 25 19 9 8 6 4 6 4 4 5 7 8 8
37 35 33 31 32 36 32 29 28 25 23 16 12 5 5 7 8 8 8 10 11 11
35 35 36 33 34 36 33 32 35 29 21 10 11 8 5 10 11 13 15 15 14 14
32 32 32 30 33 36 36 35 30 25 10 12 13 12 9 16 15 17 18 18 17 15
31 31 27 26 29 31 32 30 23 12 16 15 9 10 18 19 17 17 20 21 18 17
27 24 26 27 28 26 25 22 15 20 13 12 12 15 19 19 18 19 21 21 21 18
24 26 26 22 19 20 18 17 15 9 5 4 6 13 19 17 21 24 23 25 23 19
23 21 18 18 20 17 17 13 15 13 10 12 13 15 17 20 27 25 25 26 24 22
19 17 20 22 22 21 18 16 8 8 12 13 16 15 17 20 21 22 26 26 25 23
20 21 22 21 19 16 10 2 9 12 14 13 15 15 17 18 19 21 24 25 24 22
23 24 22 19 14 6 0 7 11 11 11 13 15 14 12 15 16 18 19 22 22 21
24 24 18 10 4 10 8 10 11 13 12 15 15 15 16 17 16 16 18 21 22 22
16 11 3 6 10 8 8 11 12 14 16 18 21 18 17 17 17 18 19 21 24 24
3 2 5 6 7 8 10 13 15 18 19 18 19 21 21 18 19 21 23 25 25 25

GFSNIL_925_spd_045.txt.gz
Wind_Speed
31 32 31 30 29 29 34 32 30 32 31 29 24 19 9 10 11 10 9 7 9 8
27 31 35 31 30 30 33 35 32 33 32 29 21 13 10 14 12 10 8 8 10 11
25 30 32 31 32 32 33 36 36 34 33 28 19 15 14 12 7 9 10 12 13 13
25 27 28 30 31 31 31 32 34 34 35 26 18 18 15 7 8 14 15 16 15 16
25 26 27 29 27 27 30 32 37 36 30 20 18 15 11 7 14 17 18 17 17 20
18 20 20 19 19 21 27 28 30 29 21 16 16 14 12 17 18 19 20 20 20 20
9 9 11 13 14 17 20 24 27 22 18 17 11 14 15 14 15 17 19 23 24 22
5 6 8 11 14 16 19 20 17 15 13 7 13 15 16 15 17 20 22 26 24 23
10 13 16 16 18 19 18 18 14 5 7 15 15 18 21 21 21 21 23 22 21 22
15 18 20 22 22 21 17 6 4 11 11 13 17 16 19 19 20 19 20 20 18 17
18 22 23 23 18 11 3 4 10 15 15 14 17 15 17 15 16 18 21 20 19 17
19 21 20 14 7 1 8 8 8 9 11 14 15 15 16 18 21 21 22 20 20 19
18 14 10 2 3 5 5 7 8 11 13 14 18 20 19 18 20 24 21 19 21 22
8 4 2 3 4 5 6 10 12 14 16 17 18 22 23 24 24 23 22 20 20 21

GFSNIL_925_spd_048.txt.gz
Wind_Speed
26 23 25 24 24 25 27 32 29 29 26 22 22 25 24 17 11 9 12 10 9 10
21 24 23 22 24 29 28 30 26 26 27 27 23 24 22 14 13 12 13 9 9 13
21 21 22 20 23 29 27 26 24 30 29 24 26 25 17 13 13 12 12 12 13 14
17 18 19 19 19 20 21 23 28 26 24 26 29 24 16 16 11 12 15 14 16 17
12 12 13 14 14 18 19 20 20 24 29 25 28 20 16 12 12 17 17 16 18 18
6 6 8 10 11 12 14 16 19 23 16 19 20 17 16 18 21 24 18 17 20 20
5 5 6 6 7 7 8 11 15 16 17 18 13 11 12 18 22 16 18 19 20 21
7 7 6 7 7 9 10 12 14 17 15 12 10 13 18 20 18 17 19 21 22 23
11 11 11 12 13 13 15 15 14 13 11 9 14 16 17 16 18 17 20 21 22 23
14 14 15 15 16 16 16 16 11 7 8 12 14 14 15 15 16 19 20 22 22 23
16 17 17 16 15 12 11 5 3 8 10 10 11 11 13 15 16 18 21 22 23 24
15 16 15 13 10 5 0 4 4 5 6 8 10 12 14 16 17 21 24 24 24 25
14 12 10 6 3 1 2 2 3 4 6 9 11 13 16 16 18 22 25 26 27 27
11 9 7 5 3 2 2 3 5 6 8 10 12 14 16 18 17 20 24 26 27 26

GFSNIL_925_spd_051.txt.gz
Wind_Speed
30 28 27 23 21 23 25 25 24 29 31 29 27 23 22 22 20 14 10 8 9 5
25 25 22 22 21 23 21 27 29 27 29 24 21 23 25 24 18 13 11 12 7 10
25 21 21 19 20 16 13 21 21 20 25 24 29 29 24 24 18 15 16 11 9 15
21 19 18 19 19 23 17 17 19 19 20 25 24 21 20 19 16 15 11 11 14 15
19 16 18 19 18 17 17 19 21 23 21 20 23 22 18 18 13 13 13 13 17 19
13 11 9 11 12 11 14 15 14 15 18 18 20 16 17 16 13 11 16 18 21 19
10 8 7 7 7 7 8 9 10 14 16 15 15 18 16 10 13 17 20 22 21 20
11 11 10 10 11 11 10 11 11 12 12 14 16 13 13 12 14 18 18 19 21 22
14 14 13 13 13 13 12 12 13 12 12 11 8 9 11 12 11 12 16 16 21 22
16 16 15 15 15 14 13 12 11 10 8 5 6 9 9 9 10 12 15 18 19 22
17 17 16 15 14 13 11 9 5 2 3 3 5 6 6 9 10 14 17 20 21 24
17 16 15 14 12 9 6 1 1 2 2 3 3 2 5 9 13 16 19 21 23 26
15 14 14 11 7 3 3 2 2 1 2 3 5 5 5 9 12 16 20 21 24 26
14 12 9 7 5 4 3 1 1 2 3 5 6 7 8 11 11 14 18 22 25 26

GFSNIL_925_spd_054.txt.gz
Wind_Speed
36 33 28 26 26 28 27 28 27 29 30 30 29 26 23 23 24 22 19 14 12 11
35 27 32 32 26 24 20 21 25 30 31 30 27 25 26 26 26 23 17 15 11 9
34 35 30 30 24 23 21 23 19 22 24 21 23 23 26 23 20 18 17 16 13 8
34 27 28 25 19 19 19 14 12 16 17 17 23 23 24 22 20 18 15 11 10 10
29 25 22 18 20 19 17 14 11 13 17 20 19 21 22 20 15 15 12 14 11 15
22 19 18 17 15 15 14 12 14 17 18 17 18 19 18 16 16 15 15 15 17 17
23 19 15 12 10 9 9 9 9 9 9 11 14 16 15 15 15 17 16 16 17 20
18 14 12 10 9 9 8 9 9 10 10 11 11 12 13 15 14 12 13 15 18 20
17 17 18 16 15 15 13 13 13 11 11 11 9 9 10 7 9 10 12 15 16 17
21 20 20 19 19 17 17 16 15 13 10 10 7 5 5 7 9 8 11 15 16 17
21 21 20 20 20 17 16 15 13 9 5 3 3 3 3 2 4 7 11 14 16 19
21 22 20 19 17 17 13 10 8 6 6 4 7 6 4 1 4 7 11 14 15 17
21 21 23 20 15 12 11 10 9 10 7 5 10 7 1 4 5 7 14 19 22 23
22 19 18 16 13 12 11 12 9 8 6 5 6 6 4 7 9 12 17 18 20 22

GFSNIL_925_spd_057.txt.gz
Wind_Speed
44 41 37 39 31 32 35 36 40 39 36 33 32 30 28 26 23 22 24 21 18 17
49 42 40 37 37 31 23 25 34 38 37 33 32 26 26 26 24 24 23 17 19 16
43 43 41 35 33 28 24 28 29 27 29 28 25 24 24 24 24 26 22 21 20 16
42 40 34 29 24 23 20 19 18 15 19 23 23 21 23 23 24 23 20 17 13 12
28 19 23 25 23 24 22 18 14 14 15 17 19 20 22 24 23 20 17 15 12 13
40 35 29 26 23 19 18 16 15 13 14 16 19 20 19 17 16 14 13 13 14 12
29 30 28 22 19 16 15 15 14 15 18 18 16 14 14 13 13 13 13 12 10 12
31 28 24 20 17 16 15 14 15 15 14 14 13 14 14 13 12 12 9 9 10 13
25 23 21 20 18 16 16 16 17 18 17 15 13 13 12 12 10 9 8 8 10 10
26 24 21 22 21 21 22 22 20 19 19 16 14 13 12 10 8 7 5 5 9 12
29 29 27 26 25 25 24 23 21 18 16 15 12 10 9 7 5 3 1 1 3 8
31 30 32 32 30 26 25 22 16 13 14 13 14 12 9 7 7 5 4 6 9 12
28 29 30 28 27 23 19 17 16 13 16 17 18 13 11 8 4 1 5 8 10 12
31 31 29 25 22 19 18 21 23 21 20 18 15 11 6 2 2 5 8 11 14 16

GFSNIL_925_spd_063.txt.gz
Wind_Speed
39 38 38 36 34 35 39 41 41 40 39 40 41 41 40 30 26 30 33 32 34 33
42 39 37 33 30 37 39 41 41 38 37 37 39 39 35 29 30 37 33 31 30 26
38 34 31 28 31 35 39 39 40 40 37 39 38 35 34 35 38 34 30 28 25 25
30 29 28 31 34 37 36 37 30 26 26 32 28 32 36 33 32 29 27 24 23 21
27 26 32 40 42 41 37 34 26 28 29 31 30 33 28 27 27 28 25 23 19 17
33 31 41 44 47 35 41 39 35 34 30 30 28 26 22 23 23 22 22 19 19 19
51 56 56 48 44 38 37 42 35 33 34 31 28 25 22 22 21 18 16 15 15 15
48 41 36 34 35 37 34 34 31 31 30 27 25 24 22 20 19 19 18 16 15 14
36 32 34 34 34 33 30 29 29 32 29 27 26 22 20 21 21 20 20 19 15 12
31 31 32 32 30 29 29 28 28 27 26 23 19 18 18 19 21 20 19 16 13 11
26 24 26 26 26 27 27 27 25 23 22 21 20 20 20 21 22 19 15 13 13 10
26 25 26 25 26 26 26 23 23 23 24 24 23 21 21 20 19 17 15 11 8 5
25 26 26 28 25 24 23 23 24 24 23 25 23 17 16 16 17 16 12 8 4 2
24 25 27 26 24 25 26 28 27 25 21 21 20 17 15 14 13 11 9 6 3 2

GFSNIL_925_spd_066.txt.gz
Wind_Speed
38 35 35 37 33 33 32 34 35 37 38 38 35 33 32 33 33 27 21 18 23 30
34 33 31 32 32 35 34 33 34 34 34 35 34 33 32 32 31 22 25 28 33 27
31 33 33 28 30 32 33 34 35 36 35 35 34 33 32 33 29 28 32 35 30 29
31 30 31 30 29 29 31 36 37 37 36 40 37 37 31 31 30 31 34 30 32 29
38 37 38 37 40 43 42 42 42 43 43 40 30 27 27 29 32 27 30 29 27 25
37 39 40 45 49 40 42 42 40 36 38 40 35 31 26 27 33 30 28 27 27 24
37 43 44 47 42 35 33 33 33 36 39 38 35 31 28 24 27 28 26 24 21 20
41 40 41 37 40 36 33 34 33 36 38 37 32 29 23 23 27 25 22 18 16 16
36 36 38 35 33 33 33 34 33 35 37 36 31 25 21 25 24 23 22 21 20 18
33 34 34 31 30 33 33 33 32 34 32 29 27 23 24 22 23 23 23 23 22 19
31 29 31 32 31 30 30 29 27 26 24 25 19 18 20 21 23 22 21 21 18 16
30 30 29 26 27 27 26 23 22 23 23 22 23 23 23 26 26 25 21 17 15 12
28 28 26 26 24 23 22 23 23 22 22 26 26 22 23 24 25 23 20 16 13 10
21 22 22 23 23 25 26 27 27 28 26 27 25 22 20 17 19 20 20 16 12 8

GFSNIL_925_spd_069.txt.gz
Wind_Speed
28 29 27 27 26 28 28 29 37 32 32 32 32 30 27 25 26 26 28 23 21 22
28 29 29 28 30 30 35 35 33 31 31 31 30 30 28 27 27 25 22 24 24 22
34 33 33 32 34 33 35 35 34 37 36 34 33 32 29 27 25 22 24 28 31 26
37 40 41 39 39 42 40 40 38 36 34 34 31 31 29 28 25 27 28 30 33 30
36 40 41 44 48 49 51 48 46 43 41 36 32 32 31 30 32 29 30 33 29 31
36 35 38 41 38 34 31 30 31 33 37 37 36 36 35 32 36 34 37 34 32 30
38 40 40 38 36 34 33 32 30 32 35 31 28 34 36 34 37 34 34 30 25 26
36 36 35 34 34 32 30 31 29 30 30 27 30 32 33 34 32 31 29 24 20 21
31 32 36 36 35 33 31 30 27 27 28 29 32 35 33 35 31 28 28 25 21 19
30 31 31 30 30 32 31 28 28 28 29 30 32 33 32 29 29 29 28 25 26 25
29 29 28 28 28 27 25 27 27 31 31 31 30 27 25 28 28 27 25 27 28 27
28 27 27 26 24 25 26 26 25 25 25 24 19 22 29 29 28 27 26 24 22 22
23 22 22 23 23 22 21 20 18 17 17 18 24 28 27 29 32 32 29 25 22 17
20 22 22 21 21 20 18 18 19 20 18 22 26 26 24 29 32 33 29 24 19 16

GFSNIL_925_spd_072.txt.gz
Wind_Speed
30 30 29 31 34 33 34 38 42 45 44 41 37 39 36 32 19 21 21 21 21 20
33 33 31 32 32 34 35 35 37 38 37 40 39 33 33 25 24 24 24 24 21 23
36 37 35 34 35 36 35 35 35 35 37 36 35 32 30 29 29 30 29 27 24 22
35 36 37 38 38 40 37 37 38 36 35 37 36 34 31 32 32 32 31 29 25 26
33 34 36 39 40 39 40 38 39 38 37 37 38 36 35 34 33 32 32 29 25 28
34 36 38 38 37 36 37 37 36 37 38 39 39 39 39 36 33 31 29 26 27 30
37 39 37 36 36 37 37 37 37 38 38 37 36 34 32 34 35 38 40 41 38 36
36 34 33 33 34 35 35 36 36 36 37 36 35 35 35 32 33 38 38 39 39 37
32 33 34 33 32 33 34 35 34 34 35 34 33 36 38 33 32 35 35 36 34 32
30 31 32 31 32 33 34 32 32 32 32 32 32 33 36 33 34 34 34 34 32 28
30 30 28 28 30 29 28 30 29 29 30 27 29 33 30 30 34 29 26 27 28 30
29 28 28 28 26 24 23 22 23 23 28 31 34 31 29 30 29 24 22 23 25 29
27 26 27 25 24 24 23 24 24 23 22 21 20 18 22 29 27 25 24 22 22 25
23 23 20 22 23 23 22 19 16 14 11 11 14 22 27 26 24 27 26 26 24 21

GFSNIL_925_spd_075.txt.gz
Wind_Speed
28 28 29 31 32 34 38 43 40 40 36 41 43 37 31 32 32 30 30 31 25 21
32 31 30 30 33 35 38 37 40 43 43 43 43 38 34 36 32 31 33 30 28 26
32 33 31 30 33 33 35 37 38 43 43 40 39 38 37 35 35 32 32 30 30 26
31 31 31 34 33 34 34 37 37 41 45 44 44 43 40 38 33 33 33 36 33 30
30 32 33 34 34 35 34 34 36 35 38 41 44 43 41 39 38 37 37 35 32 32
34 34 36 36 34 34 34 35 35 35 36 38 40 40 41 40 39 37 36 35 34 32
35 37 36 34 35 35 36 35 36 36 38 37 37 38 38 38 38 37 37 37 36 34
35 34 34 33 35 36 37 37 38 38 39 39 40 40 40 39 39 38 37 37 36 38
33 34 35 34 34 34 35 37 36 38 38 37 38 40 42 40 34 35 32 33 33 35
33 34 35 34 34 35 36 34 37 36 36 37 37 38 41 41 36 32 33 32 34 39
32 33 33 33 35 34 34 35 35 35 35 34 33 33 35 35 36 36 30 35 37 37
32 31 31 32 33 31 30 30 31 29 30 30 28 30 29 29 34 32 28 26 24 24
29 30 30 28 27 27 28 26 24 24 21 25 26 24 27 30 30 23 17 13 11 13
27 27 28 26 26 26 20 22 21 20 15 15 16 17 17 21 22 22 20 20 22 23

GFSNIL_925_spd_078.txt.gz
Wind_Speed
30 31 30 34 32 34 36 38 42 40 35 36 37 38 38 34 29 26 27 26 26 30
31 29 31 32 35 35 38 39 40 41 41 36 39 40 43 41 33 26 30 34 36 36
34 31 29 29 35 34 37 39 41 39 38 35 37 42 44 40 41 34 33 32 32 35
33 33 34 34 32 36 34 36 39 43 41 40 37 39 38 38 36 35 35 36 34 34
33 34 36 37 37 35 36 36 39 37 42 43 43 39 40 38 38 38 35 35 35 36
33 33 35 36 35 35 36 37 37 39 40 42 44 43 43 43 42 40 38 38 38 37
34 35 35 33 33 34 37 36 37 40 39 41 41 43 43 43 43 43 42 42 41 41
32 31 31 33 34 35 35 36 38 37 40 38 40 41 42 44 43 42 42 43 44 43
31 32 34 34 34 35 37 38 38 39 40 39 41 41 45 43 40 39 39 38 40 43
31 33 35 35 34 37 38 37 40 39 39 41 42 43 46 47 43 37 37 39 35 36
32 34 33 34 37 37 36 37 36 38 38 38 40 40 44 43 46 40 39 34 35 37
30 29 30 31 35 35 32 33 35 33 34 36 35 36 36 37 40 37 33 31 30 30
30 31 31 33 31 30 31 31 28 29 33 35 34 35 36 35 38 32 26 19 17 12
24 29 32 31 30 28 27 26 28 23 15 16 20 23 27 31 33 34 24 20 18 17

GFSNIL_925_spd_081.txt.gz
Wind_Speed
29 32 29 31 29 31 31 36 37 38 31 36 40 38 36 36 37 34 33 28 29 28
34 30 33 33 34 33 34 34 37 39 36 37 40 41 41 38 35 36 35 34 34 30
35 35 30 33 35 33 35 37 37 42 42 39 41 41 42 40 40 38 37 38 36 35
32 32 30 33 36 35 34 39 40 40 41 41 40 44 43 41 40 39 38 37 37 40
34 35 32 31 35 36 35 39 44 41 39 41 41 42 42 41 39 38 38 38 36 39
35 36 38 36 34 31 36 35 39 41 41 40 41 42 42 43 41 41 41 40 38 41
36 37 36 36 37 39 38 38 37 41 42 42 43 44 44 42 43 43 43 42 43 42
35 36 34 37 38 38 39 40 40 39 40 40 41 45 44 44 43 44 44 44 44 45
35 37 39 39 36 36 38 40 38 41 42 41 43 45 46 44 42 42 42 43 43 44
29 34 38 36 34 38 39 36 38 38 38 40 43 44 47 50 45 40 41 41 40 40
17 27 31 32 36 38 37 37 37 38 37 36 40 42 47 45 50 43 40 42 42 42
26 26 22 30 36 38 34 34 36 36 36 37 39 39 41 44 47 43 40 40 42 44
25 27 25 21 31 34 34 35 33 32 34 39 40 37 40 42 43 36 36 35 30 33
22 23 25 29 22 28 31 31 30 31 28 28 31 36 38 38 38 41 36 30 22 19

GFSNIL_925_spd_084.txt.gz
Wind_Speed
32 29 28 32 32 31 32 35 39 32 34 36 35 39 39 42 39 40 40 39 40 37
31 30 29 30 32 32 34 33 34 37 37 35 36 36 41 39 41 41 41 40 38 38
31 32 30 30 32 31 33 35 34 37 40 39 36 37 41 41 40 41 42 41 41 40
30 31 33 32 34 34 35 38 37 39 41 40 41 41 43 41 40 42 41 43 44 46
32 32 33 32 35 36 33 37 40 39 42 43 43 44 45 41 37 40 38 37 38 43
31 33 34 34 34 35 35 34 35 39 41 41 42 41 44 44 42 43 41 41 41 42
33 36 37 35 35 36 37 37 37 38 38 40 42 42 42 42 43 44 44 43 46 44
32 34 33 35 38 38 39 42 39 40 41 40 41 42 43 42 41 42 42 42 44 45
21 24 29 33 37 37 40 39 37 40 39 41 44 44 45 43 41 40 41 42 43 44
15 8 25 28 29 36 39 34 39 39 40 41 43 46 48 49 46 40 41 42 41 40
22 19 16 12 23 33 33 34 37 39 40 41 44 45 47 48 49 46 43 42 43 42
20 20 18 18 20 18 28 32 36 39 37 39 43 44 46 49 50 46 46 44 44 43
19 19 19 21 22 21 21 27 35 36 38 39 41 41 44 45 44 39 39 38 41 44
21 19 20 23 21 20 21 22 21 28 25 27 30 31 36 39 44 38 33 37 40 38

GFSNIL_925_spd_087.txt.gz
Wind_Speed
28 27 26 25 27 29 26 28 32 29 29 36 39 36 37 39 34 37 32 34 37 39
29 27 26 26 26 32 34 31 30 33 33 31 31 35 35 38 37 38 39 41 44 41
28 30 29 28 28 27 30 33 34 34 37 34 34 34 33 36 39 40 41 40 41 43
27 28 28 27 28 29 29 32 36 36 37 40 37 37 38 37 34 37 38 38 40 45
27 28 28 27 28 30 29 30 33 38 39 40 41 41 40 38 34 38 36 36 36 38
26 27 28 27 28 31 32 32 32 33 34 34 38 39 44 44 42 40 42 42 39 40
24 25 24 26 28 29 34 33 34 36 36 37 37 39 40 41 43 41 41 44 46 42
25 25 29 28 30 32 33 36 36 36 38 39 41 42 41 40 40 41 41 42 43 46
11 20 25 28 29 29 34 36 34 36 36 37 42 43 47 47 41 40 40 42 43 45
14 11 11 5 18 29 33 31 34 36 37 41 42 45 47 49 47 40 41 42 42 40
18 15 15 12 11 12 10 21 32 36 38 40 43 47 48 48 48 44 43 43 44 42
19 16 15 16 16 16 18 19 20 22 33 35 41 42 45 46 47 45 46 45 44 43
20 18 18 17 17 18 17 17 20 21 16 12 13 12 21 37 40 38 40 43 45 47
21 18 20 19 19 18 17 17 18 14 14 15 21 16 17 16 25 30 32 33 28 27

GFSNIL_925_spd_090.txt.gz
Wind_Speed
26 24 23 23 21 22 21 26 28 28 31 35 36 35 39 40 38 36 40 40 32 35
20 25 20 21 23 22 23 27 29 28 31 33 37 39 37 41 37 34 34 39 35 31
18 21 21 22 23 23 25 25 27 28 26 27 34 34 36 38 41 38 40 39 38 32
21 19 22 21 22 21 22 26 28 30 31 31 31 31 33 36 38 37 37 38 39 43
19 21 22 20 20 19 21 22 26 29 32 34 35 35 35 36 34 36 37 40 38 39
20 22 24 20 21 22 22 21 21 25 31 33 35 36 38 39 38 38 40 39 39 39
21 23 25 24 21 22 24 27 27 27 27 29 31 34 37 38 38 37 39 41 42 39
20 20 22 23 26 24 24 27 29 31 33 33 34 35 35 36 38 40 39 39 42 44
17 5 9 17 25 27 28 29 30 34 35 36 39 39 39 40 38 37 36 36 38 41
14 12 9 6 3 1 4 16 26 30 31 34 36 39 40 42 42 35 35 40 41 40
16 14 13 11 10 9 8 7 8 9 13 24 29 29 35 41 44 44 41 40 42 41
19 17 15 14 14 14 13 12 11 11 11 11 4 11 13 26 30 36 41 43 43 42
18 18 17 14 14 12 13 11 10 11 14 17 15 23 22 18 14 22 27 33 35 31
20 19 19 16 15 16 15 15 17 16 18 19 23 25 25 20 12 9 9 12 15 16

GFSNIL_925_spd_093.txt.gz
Wind_Speed
22 19 18 19 21 17 20 23 29 32 37 39 36 40 43 33 34 39 35 33 36 30
22 19 17 18 20 22 20 20 26 32 33 36 37 40 43 31 34 38 35 36 36 32
20 22 17 16 16 19 20 21 24 27 30 31 32 35 34 31 27 33 37 34 37 37
19 19 20 18 20 20 19 19 19 23 26 28 29 28 30 29 28 32 34 33 34 36
17 18 19 16 17 18 18 18 19 19 20 22 23 26 30 30 31 32 33 33 30 34
16 18 17 15 16 17 17 18 20 20 22 24 24 25 29 33 33 34 34 34 33 31
16 17 15 15 14 15 16 17 19 21 23 23 26 29 33 34 34 33 32 31 32 32
11 12 12 13 15 15 16 16 15 17 20 23 24 24 26 27 27 28 29 32 36 37
16 12 8 5 11 16 19 21 20 20 18 18 20 22 29 28 26 27 29 31 33 38
18 15 12 8 7 7 4 3 1 6 15 21 12 17 27 33 36 32 33 35 34 33
19 15 13 11 12 11 10 9 7 6 6 6 7 11 10 24 32 36 33 32 36 37
16 16 15 15 14 13 13 13 13 13 13 12 13 18 14 13 12 16 25 27 21 20
17 19 18 16 15 14 14 15 15 16 17 20 17 24 19 13 8 7 3 5 8 16
19 20 17 16 15 14 14 15 17 19 19 19 24 25 27 21 16 13 14 18 22 24

GFSNIL_925_spd_096.txt.gz
Wind_Speed
20 18 17 19 18 17 18 24 27 30 34 34 34 34 35 36 37 34 32 30 30 27
22 19 17 19 17 17 15 20 26 27 32 35 37 35 36 37 36 27 31 26 27 27
22 19 17 17 18 17 15 19 22 24 28 32 36 39 35 35 36 27 27 28 27 25
22 20 18 18 18 17 17 17 17 22 26 29 31 33 33 30 29 28 27 28 27 26
21 22 18 17 15 16 16 17 21 19 27 26 29 31 30 28 27 33 30 30 29 31
19 19 19 19 16 16 17 17 18 19 21 23 29 29 30 29 30 33 32 29 30 32
15 15 17 16 16 16 16 15 16 17 18 20 22 24 24 25 26 26 29 30 33 35
11 12 12 13 14 15 15 16 14 15 15 16 16 18 23 23 23 25 27 29 31 33
17 15 12 8 8 9 9 10 13 14 14 15 14 18 22 22 23 25 26 27 29 30
23 19 17 13 13 11 11 10 9 6 6 8 3 3 17 25 28 22 22 24 25 25
25 22 19 18 19 16 12 12 12 13 11 9 13 8 3 11 16 20 25 15 13 15
26 24 16 19 21 16 16 15 16 17 16 14 17 15 8 4 1 3 5 5 8 6
21 23 21 18 19 14 16 17 16 18 19 19 19 23 17 13 8 9 9 12 14 19
23 24 17 13 13 12 15 16 16 17 17 19 20 23 24 19 13 12 14 16 19 22

GFSNIL_925_spd_099.txt.gz
Wind_Speed
24 20 18 19 18 17 20 23 26 28 26 25 27 31 32 31 30 29 24 23 21 20
24 21 19 19 18 19 18 20 22 28 30 31 30 33 35 35 34 33 30 30 27 27
23 20 19 20 22 19 19 20 24 25 28 31 32 33 32 29 30 32 29 29 24 23
20 20 19 18 19 19 19 19 20 27 26 29 32 33 34 33 27 29 24 22 25 27
16 19 17 18 18 18 16 16 19 20 23 27 30 33 33 33 26 33 30 24 26 28
17 18 16 16 18 18 18 16 16 18 19 20 24 26 29 33 30 24 30 31 28 30
17 16 16 15 15 18 17 18 17 19 18 18 18 20 23 27 25 25 25 27 29 26
14 13 14 16 14 15 12 11 16 14 14 16 17 15 20 23 25 24 25 25 25 26
19 16 13 12 15 14 12 9 10 10 9 9 7 10 19 18 16 21 21 20 21 25
21 20 18 17 20 19 18 17 16 15 14 10 3 7 17 20 20 12 13 11 15 13
23 21 23 25 22 20 19 19 18 16 14 12 13 5 3 8 9 9 9 7 6 6
22 20 22 25 20 23 27 23 24 21 18 17 18 14 11 10 9 10 10 12 13 6
20 23 16 17 21 23 33 21 26 28 23 22 23 20 17 13 12 14 14 16 17 21
23 15 19 21 24 20 25 24 21 21 25 27 22 25 21 19 15 15 18 19 22 23

GFSNIL_925_spd_102.txt.gz
Wind_Speed
26 25 20 25 21 21 23 22 23 19 18 23 27 30 27 26 32 34 32 30 27 22
27 26 21 24 22 22 23 23 23 23 23 22 26 30 31 24 29 28 29 24 23 25
25 23 20 24 22 21 21 22 25 24 27 26 25 28 30 29 27 30 27 25 24 22
20 21 17 23 21 22 23 24 23 23 28 30 28 29 30 29 31 31 29 29 28 27
7 20 18 22 21 23 24 22 23 25 25 27 29 31 31 30 30 32 30 29 28 29
11 14 19 18 21 23 22 21 21 23 24 25 28 30 32 31 31 33 33 31 28 25
17 13 17 16 17 22 21 22 22 22 22 22 24 26 30 30 29 28 29 29 32 29
7 16 13 14 17 19 20 18 21 23 21 20 20 19 21 24 26 26 24 26 24 26
24 19 12 6 1 18 16 16 18 23 25 21 16 18 22 21 21 23 20 23 23 23
30 29 25 16 14 17 17 16 20 21 19 16 9 8 14 22 15 10 13 12 10 9
32 31 30 28 25 22 20 21 20 19 17 16 15 8 5 8 12 11 9 7 6 6
28 32 32 31 28 24 26 26 27 25 23 22 23 18 13 12 14 16 18 17 12 7
29 30 32 29 26 23 28 28 28 31 28 27 23 22 19 17 19 22 22 22 22 22
27 30 27 28 23 16 25 28 27 30 30 34 26 28 21 19 22 23 25 27 26 26

GFSNIL_925_spd_105.txt.gz
Wind_Speed
32 32 32 34 31 30 29 26 25 25 24 22 21 28 31 33 31 34 35 35 30 29
29 33 30 33 34 32 28 26 24 26 22 17 17 21 26 27 36 31 32 32 35 30
26 29 30 33 32 28 26 24 25 27 23 20 20 22 25 24 31 37 33 32 31 31
19 17 28 33 31 29 24 24 27 28 25 24 23 22 26 24 29 31 30 31 32 31
14 16 28 31 28 25 24 23 27 28 25 26 25 24 26 27 25 27 30 32 31 32
8 15 25 29 26 23 23 25 25 24 26 28 28 26 27 27 30 27 29 31 33 31
3 11 23 26 24 23 24 25 24 23 25 26 27 30 31 29 30 30 29 29 32 31
19 10 15 14 19 21 21 20 21 22 21 21 22 22 27 28 28 30 28 29 30 30
25 21 18 17 20 17 17 15 18 19 17 18 17 20 24 24 25 25 23 25 28 28
26 26 25 24 24 24 21 18 19 17 14 9 9 15 21 21 18 17 15 14 14 19
26 26 29 30 28 30 29 26 26 22 21 18 14 7 11 18 17 16 12 9 8 8
31 26 27 29 26 30 34 32 33 28 25 24 20 12 12 18 21 21 20 16 11 7
27 29 28 31 23 32 35 35 35 34 31 27 24 19 19 18 23 28 27 25 24 19
23 29 26 30 24 28 28 31 33 34 35 33 27 23 21 21 24 28 30 29 29 27

GFSNIL_925_spd_108.txt.gz
Wind_Speed
32 31 30 33 31 33 34 33 34 33 32 30 29 30 33 33 34 32 26 34 28 28
30 32 32 33 33 33 34 35 34 32 31 28 29 30 28 30 29 27 31 34 34 32
26 33 34 32 34 34 34 33 32 29 28 27 25 23 28 27 28 29 31 31 34 34
23 28 34 34 34 36 35 32 28 28 26 27 23 22 24 25 25 28 26 30 33 33
4 8 24 31 31 34 34 29 27 26 25 27 24 22 25 25 25 30 28 27 33 28
16 5 20 28 31 32 31 27 23 23 26 26 25 23 22 24 23 25 28 31 28 28
26 18 4 23 29 32 30 25 23 22 23 25 24 24 25 25 24 22 21 24 28 30
29 24 14 6 23 26 25 24 25 21 19 22 21 20 22 24 25 24 25 25 27 29
33 31 26 21 9 25 24 22 24 20 17 16 17 20 20 21 24 26 26 26 26 25
33 34 32 29 27 23 21 21 22 20 15 11 8 13 19 20 18 17 17 16 20 21
31 34 32 34 30 32 26 24 22 21 18 16 12 6 8 15 15 14 12 11 12 14
31 32 33 28 32 32 29 34 27 25 22 22 19 14 13 16 18 17 15 11 8 9
30 30 27 27 28 32 29 30 33 27 30 27 25 20 20 21 22 27 25 21 19 13
25 25 26 25 25 24 25 29 30 25 33 32 30 26 24 22 25 28 29 27 27 24

GFSNIL_925_spd_111.txt.gz
Wind_Speed
17 25 28 27 29 32 32 34 35 38 37 37 35 35 31 29 32 31 32 33 32 32
21 24 30 32 34 36 35 36 34 35 37 36 34 33 29 29 28 29 28 26 34 34
19 25 29 30 32 34 34 34 33 35 35 33 32 30 28 28 28 26 28 28 26 28
14 16 27 29 31 35 35 35 34 36 34 33 32 29 27 27 25 25 24 26 27 29
20 14 18 26 29 32 33 34 36 35 34 34 30 26 26 24 24 23 24 27 25 25
27 22 17 9 22 27 29 31 32 31 32 31 27 26 24 22 23 23 24 23 28 28
31 27 21 17 9 21 26 29 31 30 29 26 24 25 24 20 21 21 22 26 29 28
27 26 25 24 18 11 14 28 31 26 24 23 24 22 23 24 22 22 19 21 24 26
28 28 31 29 27 23 19 11 12 20 19 19 19 21 22 23 23 23 23 24 22 23
31 30 30 32 35 31 33 26 22 16 10 9 7 13 18 20 21 19 19 20 20 23
31 31 30 32 34 34 33 30 34 28 22 14 11 4 9 16 15 14 11 10 11 16
29 28 31 30 29 28 34 35 28 28 26 25 22 12 7 15 16 14 12 7 5 8
29 30 29 29 28 28 28 28 28 34 33 31 26 23 10 13 18 20 20 17 16 11
27 27 26 25 26 27 29 33 31 31 34 32 29 27 19 19 22 22 27 26 25 20

GFSNIL_925_spd_114.txt.gz
Wind_Speed
8 12 19 29 30 32 30 31 30 35 36 36 36 38 35 34 33 33 31 31 31 29
12 15 20 21 30 29 30 32 32 32 35 35 35 36 35 34 33 32 30 29 30 31
14 11 18 21 27 32 32 32 30 30 33 34 31 35 35 32 31 29 27 27 27 27
19 14 8 18 20 27 29 30 31 32 32 33 31 33 34 31 29 27 25 26 27 29
24 20 15 8 6 22 28 29 32 32 31 32 33 34 34 32 29 25 26 26 26 27
28 28 24 18 14 6 17 24 26 27 30 32 32 32 31 28 25 26 25 25 25 23
28 27 26 24 20 14 8 5 20 23 27 29 30 31 31 26 26 23 24 25 24 24
28 28 29 30 27 22 16 12 8 10 21 27 25 23 21 25 25 23 23 22 21 23
31 32 33 33 31 29 26 22 18 14 8 8 4 13 19 24 27 23 20 19 18 16
30 30 32 32 32 33 31 28 27 25 22 22 24 14 13 17 23 20 19 19 19 20
31 31 31 31 31 31 31 31 31 31 28 27 31 28 12 2 8 12 10 8 11 15
26 28 32 32 31 29 30 33 32 30 33 35 34 28 22 11 12 14 13 6 2 5
27 28 27 29 29 28 29 29 29 37 39 37 39 32 22 19 20 24 23 20 20 14
30 28 28 27 28 28 28 27 29 29 30 33 37 35 31 28 28 26 26 26 26 25

GFSNIL_925_spd_117.txt.gz
Wind_Speed
3 7 9 17 24 25 26 29 26 31 33 35 34 36 33 33 35 33 33 31 31 27
6 7 10 15 12 25 26 25 30 32 35 37 34 36 34 32 32 33 34 32 31 31
12 10 10 13 17 13 25 25 25 30 32 31 32 34 34 30 31 32 32 31 30 29
17 15 12 9 4 10 21 25 26 26 27 29 30 33 33 30 29 32 30 31 29 28
23 20 19 18 12 7 6 19 22 24 24 29 30 30 32 32 29 30 29 29 27 26
30 29 27 25 21 16 10 3 11 19 24 27 29 30 32 32 31 32 31 30 26 25
29 27 26 25 26 23 19 14 10 3 12 19 21 24 27 31 32 32 31 25 25 21
29 28 30 31 29 25 26 25 20 13 12 9 5 3 13 19 30 29 27 20 24 25
30 32 31 32 30 31 30 29 29 28 25 24 21 20 10 17 14 21 25 23 22 23
30 30 30 30 32 33 31 32 32 32 30 30 28 25 17 8 7 3 8 12 16 19
28 26 26 28 29 30 30 29 32 35 33 31 33 26 20 12 10 12 16 9 1 7
26 25 25 26 26 26 27 30 31 31 33 32 36 29 24 20 19 22 22 23 22 11
28 30 29 28 26 25 24 24 24 29 31 32 36 36 30 26 24 26 25 26 24 27
27 26 27 26 28 26 24 24 26 26 29 30 35 35 34 30 29 26 28 25 25 30

GFSNIL_925_spd_123.txt.gz
Wind_Speed
18 8 11 20 14 14 17 17 19 21 22 25 26 26 26 26 26 26 27 26 29 25
24 18 12 23 9 4 7 4 22 22 25 25 24 25 27 27 25 24 28 29 28 28
25 24 23 13 11 12 6 5 1 14 16 21 24 27 27 28 27 27 29 25 24 26
23 23 27 26 20 13 11 8 6 4 12 14 19 22 24 24 25 27 29 24 23 33
29 39 38 22 19 18 16 14 10 9 2 5 12 14 20 24 25 26 26 28 28 41
34 29 25 27 23 25 23 24 23 20 17 14 13 8 4 4 14 27 28 28 30 34
31 30 33 30 30 33 33 33 32 29 25 23 22 19 14 11 11 12 13 25 31 29
34 37 36 33 34 36 37 35 32 30 33 31 30 28 23 15 14 13 17 18 21 31
38 36 35 37 37 37 33 33 33 33 32 35 33 27 25 20 16 15 16 17 17 12
38 35 33 28 30 32 33 31 33 33 31 32 38 31 27 26 22 21 21 21 21 16
30 27 25 27 30 29 28 29 30 30 31 31 39 36 29 24 22 24 24 25 26 23
25 25 28 30 28 27 29 29 31 31 31 30 33 39 33 24 26 27 27 27 30 30
24 29 28 26 25 22 23 25 23 26 30 28 29 33 33 28 24 24 24 27 31 33
27 25 26 25 24 24 21 22 24 23 23 29 31 32 31 31 30 25 22 23 25 27